Location: Jefferson
(30.9666°N, 81.7901°W)
Time: 19:30:11
(UTC+00:00)

ACS3 Solar Sail - Pass Details

Date: 23 September 2024
Orbit: 960 x 1036 km, 97.4° (Epoch: 09 October)

Event Time Altitude Azimuth Distance (km) Brightness Sun altitude
Exits shadow 23:34:48 - 77° (ENE) 3,520 4.1 -3.4°
Enters shadow 00:55:37 -37° 163° (SSE) 9,186 6.7 -20.5°
Drops below altitude 10° 01:26:01 10° 1° (N) 2,842 4.4 -26.8°
Sets 01:28:35 0° 356° (N) 3,796 5.2 -27.4°
